This demonstration page uses our WeatherBlox Daily Observations layout. Learn more.

Left ArrowRight Arrow

Hourly Observations for April 8, 2015

Temp ( °F °C ) Dew Point ( °F °C ) Humidity (%) Winds ( mph kmh ) Pressure ( in mb ) Visibility ( mi km ) Precip ( " mm )
12:23 am 00:23 Cloudy with Mist and Fog 41 5 40 4.4 96 96 NE 16 26 30.00 1016 2 2 0.00 0.00
12:34 am 00:34 Mostly Cloudy with Fog 41 5 39 4 93 93 NE 16 26 29.97 1015 1 1 0.00 0.00
12:53 am 00:53 Mostly Cloudy with Mist and Fog 41 5 40 4.4 96 96 NE 17 28 29.93 1014 1 2 0.00 0.00
1:10 am 01:10 Mostly Cloudy with Fog 41 5 39 4 93 93 NE 17 28 29.97 1015 1 1 0.00 0.00
1:26 am 01:26 Mostly Cloudy with Mist and Fog 41 5 39 4 93 93 NE 16 26 29.97 1015 1 2 0.00 0.00
1:36 am 01:36 Cloudy with Mist and Fog 41 5 40 4.4 96 96 NE 16 26 29.97 1015 3 5 0.00 0.00
1:43 am 01:43 Cloudy with Mist and Fog 41 5 40 4.4 96 96 NE 17 28 29.97 1015 2 3 0.00 0.00
1:53 am 01:53 Cloudy with Mist and Fog 41 5 40 4.4 96 96 NE 15 24 29.92 1013 1 2 0.00 0.00
2:09 am 02:09 Cloudy with Mist and Fog 41 5 40 4.4 96 96 NE 13 20 29.97 1015 3 5 0.00 0.00
2:38 am 02:38 Cloudy with Mist and Fog 39 4 39 4 100 100 E 9 15 30.00 1016 2 3 0.00 0.00
2:53 am 02:53 Mostly Cloudy with Mist and Fog 40 4.4 40 4.4 100 100 ENE 10 17 29.97 1015 1 1 0.00 0.00
3:53 am 03:53 Mostly Cloudy with Fog 40 4.4 40 4.4 100 100 NE 12 19 29.93 1014 0 0 0.00 0.00
4:53 am 04:53 Mostly Cloudy with Fog 40 4.4 40 4.4 100 100 ENE 12 19 29.94 1014 1 1 0.00 0.00
5:53 am 05:53 Mostly Cloudy with Mist and Fog 40 4.4 39 3.9 97 97 NE 9 15 29.93 1014 1 2 0.00 0.00
6:04 am 06:04 Mostly Cloudy with Mist and Fog 39 4 39 4 100 100 NE 9 15 29.97 1015 1 1 0.00 0.00
6:53 am 06:53 Cloudy with Mist and Fog 40 4.4 39 3.9 97 97 NNE 12 19 29.93 1014 1 2 0.00 0.00
7:41 am 07:41 Cloudy with Mist and Fog 40 4.4 40 4.4 100 100 NNE 15 24 29.97 1015 1 1 0.00 0.00
7:53 am 07:53 Cloudy with Mist and Fog 40 4.4 40 4.4 100 100 NNE 15 24 29.93 1014 1 2 0.00 0.00
8:29 am 08:29 Cloudy with Mist and Fog 40 4.4 40 4.4 100 100 NNE 16 26 29.94 1014 2 3 0.00 0.00
8:45 am 08:45 Cloudy with Mist and Fog 41 5 40 4.4 96 96 NNE 14 22 29.94 1014 2 3 0.00 0.00
8:53 am 08:53 Cloudy with Mist and Fog 41 5 40 4.4 96 96 NE 15 24 29.91 1013 3 5 0.00 0.00
9:53 am 09:53 Cloudy 41 5 40 4.4 96 96 ENE 13 20 29.90 1013 7 11 0.00 0.00
10:53 am 10:53 Cloudy with Mist and Fog 42 5.6 41 5 96 96 ENE 12 19 29.88 1012 2 3 0.00 0.00
11:00 am 11:00 Cloudy with Mist and Fog 43 6 41 5 93 93 ENE 14 22 29.88 1012 2 2 0.00 0.00
11:53 am 11:53 Cloudy with Mist and Fog 43 6.1 42 5.6 97 97 NE 10 17 29.86 1011 2 2 0.00 0.00
12:13 pm 12:13 Cloudy with Mist and Fog 43 6.1 42 5.6 97 97 NE 8 13 29.88 1012 3 4 0.00 0.00
12:53 pm 12:53 Cloudy with Mist and Fog 44 6.7 42 5.6 93 93 NE 12 19 29.86 1011 2 3 0.00 0.00
1:09 pm 13:09 Cloudy with Mist and Fog 44 6.7 43 6.1 96 96 NE 9 15 29.85 1011 2 2 0.00 0.00
1:53 pm 13:53 Cloudy with Mist and Fog 44 6.7 43 6.1 96 96 ENE 12 19 29.83 1010 1 2 0.00 0.00
2:53 pm 14:53 Cloudy with Mist and Fog 46 7.8 44 6.7 93 93 NE 13 20 29.79 1009 3 5 0.00 0.00
3:53 pm 15:53 Cloudy with Mist and Fog 45 7.2 44 6.7 97 97 ENE 9 15 29.76 1008 6 10 0.00 0.00
4:53 pm 16:53 Cloudy with Mist and Fog 46 7.8 44 6.7 93 93 ENE 9 15 29.75 1008 5 8 0.00 0.00
5:53 pm 17:53 Cloudy with Mist and Fog 45 7.2 44 6.7 97 97 E 8 13 29.74 1007 4 6 0.00 0.00
6:10 pm 18:10 Cloudy with Mist and Fog 45 7 45 7 100 100 E 10 17 29.74 1007 3 4 0.00 0.00
6:36 pm 18:36 Cloudy with Mist and Fog 45 7 45 7 100 100 E 10 17 29.74 1007 2 2 0.00 0.00
6:53 pm 18:53 Cloudy with Mist and Fog 45 7.2 44 6.7 97 97 ENE 8 13 29.72 1006 1 2 0.00 0.00
7:53 pm 19:53 Cloudy with Mist and Fog 45 7.2 44 6.7 97 97 ENE 14 22 29.69 1005 1 2 0.00 0.00
8:18 pm 20:18 Cloudy with Mist and Fog 45 7 43 6 93 93 ENE 12 19 29.74 1007 2 3 0.00 0.00
8:53 pm 20:53 Cloudy with Mist and Fog 45 7.2 43 6.1 93 93 E 13 20 29.72 1007 2 3 0.00 0.00
9:27 pm 21:27 Cloudy with Mist and Fog 45 7.2 43 6.1 93 93 ENE 12 19 29.74 1007 2 3 0.00 0.00
9:39 pm 21:39 Cloudy with Mist and Fog 45 7.2 43 6.1 93 93 NE 14 22 29.74 1007 2 3 0.00 0.00
9:53 pm 21:53 Cloudy with Mist and Fog 44 6.7 43 6.1 96 96 NE 13 20 29.68 1005 3 4 0.00 0.00
10:01 pm 22:01 Cloudy with Mist and Fog 44 6.7 43 6.1 96 96 NE 14 22 29.68 1005 3 5 0.00 0.00
10:53 pm 22:53 Cloudy with Mist and Fog 44 6.7 43 6.1 96 96 ENE 14 22 29.67 1005 3 5 0.00 0.00
11:16 pm 23:16 Cloudy with Mist and Fog 44 6.7 43 6.1 96 96 NE 15 24 29.68 1005 3 4 0.00 0.00
11:53 pm 23:53 Cloudy with Mist and Fog 44 6.7 43 6.1 96 96 NNE 14 22 29.70 1006 2 3 0.00 0.00

Powered by AerisWeather